Flight Track Log - Related Links

Times and Time Zones

All times are in EST time to prevent confusion due to time zone crossing. See the ASQ2516 flight status page for this flight to view local times or setup timezone preferences in your user account.

Time Position Orientation Groundspeed Altitude Reporting Facility
EST Latitude Longitude Course Direction KTS MPH feet Rate Location/Type
Sun 10:15:45 PM 32.8833 -97.0333 180° South 167 192 1,000  Level Dallas / Fort Worth TRACON
Sun 10:16:09 PM 32.8667 -97.0333 180° South 163 188 2,000 1,976 Climbing Dallas / Fort Worth TRACON
Sun 10:17:10 PM 32.8167 -97.0333 180° South 251 289 3,800 2,380 Climbing Dallas / Fort Worth TRACON
Sun 10:18:10 PM 32.7500 -96.9833 148° Southeast 265 305 6,800 2,415 Climbing Dallas / Fort Worth TRACON
Sun 10:19:49 PM 32.7758 -96.8425 78° East 290 334 10,200 1,774 Climbing Fort Worth Center
Sun 10:20:49 PM 32.7939 -96.7339 79° East 320 368 11,500 1,350 Climbing Fort Worth Center
Sun 10:21:49 PM 32.7911 -96.6153 92° East 339 390 12,900 1,500 Climbing Fort Worth Center
Sun 10:22:49 PM 32.7758 -96.4917 98° East 373 429 14,500 1,500 Climbing Fort Worth Center
Sun 10:23:49 PM 32.7603 -96.3683 98° East 378 435 15,900 1,500 Climbing Fort Worth Center
Sun 10:24:49 PM 32.7464 -96.2378 97° East 389 448 17,500 1,300 Climbing Fort Worth Center
Sun 10:25:49 PM 32.7328 -96.1194 98° East 394 453 18,500 750 Climbing Fort Worth Center
Sun 10:26:49 PM 32.7167 -95.9714 97° East 401 461 19,000 250 Climbing Fort Worth Center
Sun 10:27:49 PM 32.7006 -95.8433 98° East 430 495 19,000  Level Fort Worth Center
Sun 10:28:49 PM 32.6817 -95.6856 98° East 437 503 19,000  Level Fort Worth Center
Sun 10:29:49 PM 32.6650 -95.5403 98° East 445 512 19,000  Level Fort Worth Center
Sun 10:30:49 PM 32.6483 -95.4000 98° East 440 506 19,000  Level Fort Worth Center
Sun 10:31:49 PM 32.6314 -95.2647 98° East 434 499 19,000  Level Fort Worth Center
Sun 10:32:49 PM 32.6142 -95.1222 98° East 424 488 19,000  Level Fort Worth Center
Sun 10:33:49 PM 32.5969 -94.9819 98° East 424 488 19,000 -400 Level Fort Worth Center
Sun 10:34:49 PM 32.5797 -94.8444 98° East 424 488 18,200 -1,450 Descending Fort Worth Center
Sun 10:35:49 PM 32.5619 -94.6947 98° East 430 495 16,100 -2,324 Descending Fort Worth Center
Sun 10:36:40 PM 32.5428 -94.5794 101° East 429 494 13,900 -2,526 Descending Fort Worth Center
Sun 10:36:46 PM 32.5425 -94.5672 92° East 427 491 13,700 -2,667 Descending Fort Worth Center
Sun 10:36:49 PM 32.5442 -94.5572 79° East 435 501 13,500 -1,400 Descending Fort Worth Center
Sun 10:37:46 PM 32.5269 -94.4444 100° East 369 425 12,300 -1,200 Descending Fort Worth Center
Sun 10:37:49 PM 32.5311 -94.4467 336° Northwest 400 460 12,300 -1,279 Level Fort Worth Center
Sun 10:38:47 PM 32.5244 -94.3361 94° East 318 366 11,000 -1,300 Descending Fort Worth Center
Sun 10:38:49 PM 32.5261 -94.3236 81° East 347 399 11,000 -98 Level Fort Worth Center
Sun 10:39:48 PM 32.5239 -94.2300 92° East 284 327 10,900 -100 Descending Fort Worth Center
Sun 10:39:49 PM 32.5261 -94.2375 289° West 303 349 10,900 -900 Level Fort Worth Center
Sun 10:40:48 PM 32.5217 -94.1489 93° East 245 282 10,000 -900 Descending Fort Worth Center
Sun 10:40:49 PM 32.5258 -94.1439 45° Northeast 263 303 10,000 -2,459 Level Fort Worth Center
Sun 10:41:49 PM 32.5325 -94.0747 83° East 241 277 7,500 -2,700 Descending Fort Worth Center
Sun 10:42:49 PM 32.5281 -93.9958 94° East 217 250 4,600 -2,150 Descending Fort Worth Center
Sun 10:43:49 PM 32.5247 -93.9419 94° East 195 224 3,200 -1,475 Descending Fort Worth Center
Sun 10:43:50 PM 32.5225 -93.9369 118° Southeast 189 217 3,100 -1,400 Descending Fort Worth Center
Sun 10:44:49 PM 32.5106 -93.8858 105° East 170 196 1,800 -1,279 Descending Fort Worth Center
Sun 10:44:51 PM 32.5086 -93.8883 227° Southwest 155 178 1,800 -800 Level Fort Worth Center
Sun 10:45:49 PM 32.4828 -93.8597 137° Southeast 145 167 1,000 -900 Descending Fort Worth Center
Sun 10:45:51 PM 32.4764 -93.8575 164° South 131 151 900 -600 Descending Fort Worth Center
Sun 10:46:49 PM 32.4483 -93.8267 137° Southeast 140 161 400 -517 Descending Fort Worth Center
Sun 10:52:00 PM 32.4466 -93.8256 320° Northwest  Level Estimated

Login

Don't have an account? Register now (free) for customized features, flight alerts, and more!